Weather in Borisovo

Russia / Kemerovo Oblast     54°48′33″N   86°33′54″E
temp.,
°C
wind,
m/s
gust,
m/s
humid.,
%
clouds,
%
prec.,
mm/h
press.,
hPa
HPBL,
m
19 september, sun
sun1901:00+6wnw11815 0.0 101110
04:00+5ssw228498 0.0 101219
07:00+6s3682100 0.0 1011169
10:00+10ssw5862100 0.0 1010937
13:00+13ssw684799 0.0 10081549
16:00+14sw4847100 0.0 10061563
19:00+12se4856100 0.0 1004172
22:00+13ssw7144799 0.0 1003589
20 september, mon
mon2001:00+8wsw51082100 0.1 1006573
04:00+6w51083100 0.1 1007482
07:00+5sw4985100 0.2 1010299
10:00+7sw7106893 0.1 10111110
13:00+9wsw10144799 0.4 10122148
16:00+8sw81259100 0.2 10131703
19:00+7sw51064100 0.5 10131224
22:00+5sw4769100 0.1 1012750
21 september, tue
tue2101:00+3sw5997100 1.3 1012776
04:00+3sw51097100 0.9 1012510
07:00+3sw5990100 1.4 1013890
10:00+2wsw6991100 0.9 1014756
13:00+4wsw7973100 1.3 10141168
16:00+3wsw71196100 0.9 1015776
19:00+3wsw51097100 1.5 1017656
22:00+3w5997100 0.5 1018674
22 september, wed
wed2201:00+2wsw4891100 0.6 1019553
04:00+2sw3788100 0.3 1019289
07:00+1sw4897100 0.4 1021342
10:00+2sw5991100 0.1 1021715
13:00+4wsw4675100 0.5 10211110
16:00+5wsw566393 0.3 10211316
19:00+3sw237599 0.4 102142
22:00+2ssw2385100 0.0 102267
23 september, thu
thu2301:00+2ssw2488100 0.1 1021119
04:00+1s3599100 0.1 1020186
07:00+1ssw2499100 0.1 1021169
10:00+2ssw2399100 0.8 1021171
13:00+2sw2399100 1.4 1021182
16:00+3wnw1195100 0.6 1022290
19:00+2nne1198100 1.1 1023193
22:00+2nne1190100 0.0 1024271